Content
SEND FEEDBACK

Daily
Averages
Monthly
Summary
United States of America

EL PASO, TEXAS


Home > North America > United States > Texas
Elevation: 3918 feet     Latitude: 31 48N     Longitude: 106 24W

WEATHER
 
SELECT A DAY
Number of Records: 176,081;   Date Range: 1/1/95 - 12/24/14
 
SHARE

PRINT THIS DATA

[ ← Previous Day ]
WEATHER ALMANAC - SEPTEMBER 21, 2013
[ Next Day → ]
[ °C ]   °F
Weather ElementAverageHighLow
Temperature70.1 °F79 °F (4:51 pm)63 °F (3:51 am)
Dewpoint54.9 °F59 °F (1:51 am)52 °F (4:51 pm)
Humidity60.3 %84 % (2:51 am)39 % (4:51 pm)
Barometer29.89 in29.99 in (8:51 am)29.81 in (5:51 pm)
Wind Speed5.8 mph12.7 mph (9:51 am)
Wind Gust19.6 mph (1:51 pm)
Weather ElementAverage
Visibility10 mi
Wind DirectionESE (102.2 °)

Weather ElementTotal
Precipitation---
Cooling Degree Days6 (Base 65)
Growing Degree Days21 (Base 50)
Averaged from 23 records on September 21, 2013
WEATHER CONDITIONS BREAKOUT
WIND DIRECTION BREAKOUT
WEATHER BY HOUR - SEPTEMBER 21, 2013
[ °C ]   °F
Local TimeTemperatureDewpointHumidityBarometerVisibilityWind DirectionWind SpeedGust SpeedPrecipitationEventsConditions
1:51 AM66.0 °F59.0 °F78 %29.91 in10.0 miEast (100°)5.8 mphClear
2:51 AM64.0 °F59.0 °F84 %29.91 in10.0 miEast (90°)4.6 mphClear
3:51 AM63.0 °F57.9 °F84 %29.91 in10.0 miEast (100°)3.5 mphClear
4:51 AM63.0 °F57.9 °F84 %29.91 in10.0 miCalmOvercast
5:51 AM64.0 °F57.0 °F78 %29.93 in10.0 miESE (110°)6.9 mphMostly Cloudy
6:51 AM63.0 °F55.9 °F78 %29.95 in10.0 miEast (100°)4.6 mphPartly Cloudy
7:51 AM64.0 °F55.9 °F75 %29.97 in10.0 miEast (100°)6.9 mphPartly Cloudy
8:51 AM66.0 °F55.0 °F68 %29.99 in10.0 miESE (120°)5.8 mphScattered Clouds
9:51 AM68.0 °F55.0 °F63 %29.98 in10.0 miSE (130°)12.7 mphScattered Clouds
10:51 AM70.0 °F55.0 °F59 %29.98 in10.0 miESE (110°)8.1 mph18.4 mphMostly Cloudy
11:51 AM72.0 °F55.9 °F57 %29.97 in10.0 miSSE (160°)11.5 mphMostly Cloudy
12:51 PM73.9 °F55.0 °F52 %29.94 in10.0 miEast (100°)5.8 mphMostly Cloudy
1:51 PM75.9 °F54.0 °F46 %29.90 in10.0 miESE (110°)9.2 mph19.6 mphScattered Clouds
2:51 PM75.9 °F53.1 °F45 %29.87 in10.0 miESE (110°)5.8 mphPartly Cloudy
3:51 PM78.1 °F53.1 °F42 %29.84 in10.0 miESE (120°)5.8 mphPartly Cloudy
4:51 PM79.0 °F52.0 °F39 %29.82 in10.0 miESE (110°)5.8 mphPartly Cloudy
5:51 PM78.1 °F52.0 °F40 %29.81 in10.0 miCalmPartly Cloudy
6:51 PM75.9 °F52.0 °F43 %29.81 in10.0 miESE (110°)4.6 mphPartly Cloudy
7:51 PM73.9 °F53.1 °F48 %29.81 in10.0 miEast (100°)3.5 mphPartly Cloudy
8:51 PM72.0 °F53.1 °F51 %29.82 in10.0 miESE (120°)5.8 mphClear
9:51 PM70.0 °F53.1 °F55 %29.83 in10.0 miSE (130°)5.8 mphClear
10:51 PM69.1 °F54.0 °F58 %29.82 in10.0 miEast (100°)5.8 mphPartly Cloudy
11:51 PM68.0 °F54.0 °F61 %29.81 in10.0 miESE (120°)5.8 mphClear
Hourly data recorded from KELP, located miles away from El Paso, Texas







STORIES FROM OUR PARTNERS